Total_Precipitation_Accumulation
2.52 2.76 2.71 2.60 2.54 2.60 2.51 2.36 2.16 2.18 2.11 1.94 1.81 1.88 1.97 2.01 2.10 2.26 2.35 2.29 2.30 2.55 3.02 3.33 3.37 3.22 3.15 3.12 3.04 2.91 2.76 2.67 2.66 2.54 2.42 2.25 2.10 1.99 1.96 2.01 2.00 1.85 1.80
3.09 3.24 3.19 3.01 2.81 2.87 2.79 2.64 2.54 2.63 2.57 2.51 2.32 2.24 2.17 2.25 2.25 2.31 2.52 2.65 2.50 2.48 2.91 3.46 3.74 3.71 3.59 3.53 3.28 3.03 2.93 2.87 2.84 2.74 2.63 2.42 2.20 2.16 2.11 2.11 2.09 1.96 1.87
3.63 3.68 3.66 3.37 3.11 3.10 3.29 3.25 3.10 3.06 2.81 2.72 2.61 2.54 2.44 2.32 2.32 2.40 2.59 2.93 2.88 2.93 3.08 3.17 3.33 3.45 3.59 3.78 3.81 3.58 3.32 3.12 3.01 2.92 2.83 2.71 2.51 2.31 2.23 2.21 2.24 2.17 2.04
3.69 3.79 3.78 3.62 3.48 3.39 3.64 3.81 3.70 3.58 3.40 3.33 3.13 2.86 2.62 2.54 2.53 2.67 2.78 2.99 3.26 3.25 3.34 3.19 3.04 3.14 3.43 3.67 3.85 3.91 3.73 3.41 3.20 3.15 3.10 3.01 2.80 2.62 2.44 2.33 2.34 2.30 2.17
4.05 4.09 3.99 3.97 4.00 4.06 4.03 3.79 3.91 3.76 3.77 3.66 3.22 2.99 2.68 2.58 2.67 2.67 2.79 2.88 3.09 3.09 3.11 3.01 3.00 3.02 3.23 3.60 3.72 3.92 3.95 3.81 3.60 3.44 3.39 3.33 3.14 2.89 2.69 2.54 2.42 2.34 2.24
4.48 4.69 4.63 4.55 4.53 4.50 4.30 4.22 4.22 3.99 3.81 3.66 3.19 2.94 2.72 2.57 2.51 2.58 2.59 2.62 2.68 2.65 2.60 2.69 3.01 2.92 3.03 3.22 3.30 3.51 3.80 3.96 3.80 3.59 3.49 3.48 3.32 2.99 2.69 2.56 2.50 2.41 2.34
5.24 5.28 5.06 4.87 4.73 4.73 4.66 4.61 4.41 4.17 3.89 3.77 3.68 3.28 2.76 2.49 2.45 2.37 2.37 2.42 2.47 2.52 2.52 2.56 2.60 2.60 2.63 2.79 2.82 3.00 3.30 3.66 3.77 3.73 3.70 3.58 3.43 3.22 2.91 2.67 2.60 2.55 2.48
5.40 5.31 5.36 5.28 5.08 4.93 4.76 4.57 4.45 4.25 3.90 3.81 3.80 3.65 3.14 2.75 2.36 2.04 2.04 2.08 2.18 2.38 2.29 2.23 2.31 2.40 2.42 2.54 2.54 2.76 2.97 3.20 3.49 3.64 3.55 3.41 3.29 3.25 3.21 3.06 2.89 2.77 2.68
5.57 5.38 5.27 5.08 4.93 4.80 4.66 4.45 4.24 4.11 3.90 3.76 3.72 3.81 3.48 3.02 2.55 2.19 1.91 1.88 1.91 2.05 2.04 2.04 2.05 2.14 2.26 2.40 2.38 2.52 2.66 2.70 3.02 3.30 3.41 3.32 3.20 3.10 3.07 3.07 3.04 2.98 2.92
5.19 4.94 4.83 4.74 4.57 4.23 4.01 3.84 3.75 3.61 3.49 3.32 3.35 3.32 3.17 2.97 2.94 2.75 2.42 2.24 2.14 2.08 2.08 2.01 1.97 2.07 2.10 2.23 2.39 2.40 2.38 2.38 2.60 2.87 3.10 3.20 3.13 3.15 3.14 3.13 3.11 3.08 3.09
4.57 4.30 4.18 4.04 3.81 3.43 3.08 2.95 3.03 3.09 3.10 3.01 3.00 3.06 3.06 2.89 2.82 2.79 2.68 2.54 2.43 2.23 2.12 2.17 2.17 2.14 2.10 2.08 2.14 2.25 2.21 2.06 2.16 2.32 2.63 2.90 3.02 3.14 3.20 3.13 3.13 3.11 3.13
3.98 3.62 3.30 3.05 2.82 2.65 2.46 2.41 2.46 2.53 2.73 2.83 2.96 2.98 2.98 2.88 2.78 2.79 2.69 2.63 2.59 2.42 2.20 2.09 2.11 2.07 2.04 2.02 1.96 2.12 1.92 1.81 1.80 1.87 2.05 2.31 2.56 2.72 2.74 2.87 3.04 3.14 3.22
3.20 2.90 2.61 2.50 2.38 2.26 2.18 2.18 2.18 2.16 2.26 2.45 2.58 2.67 2.75 2.75 2.74 2.78 2.87 2.82 2.64 2.47 2.35 2.18 2.03 1.96 1.94 1.96 1.95 1.98 1.79 1.68 1.60 1.58 1.59 1.70 1.84 2.06 2.22 2.41 2.60 2.79 2.91
2.44 2.19 2.00 1.88 1.86 1.90 1.85 1.92 1.93 1.95 1.96 2.04 2.14 2.34 2.47 2.48 2.51 2.50 2.53 2.64 2.68 2.52 2.30 2.14 2.04 1.90 1.79 1.71 1.72 1.69 1.50 1.51 1.37 1.33 1.34 1.40 1.46 1.54 1.68 1.78 1.89 2.00 2.08
1.79 1.67 1.59 1.56 1.52 1.56 1.64 1.66 1.64 1.67 1.77 1.79 1.82 1.96 2.03 2.06 2.11 2.17 2.25 2.34 2.52 2.55 2.32 2.04 1.93 1.79 1.60 1.46 1.51 1.33 1.29 1.32 1.19 1.11 1.08 1.10 1.14 1.23 1.30 1.36 1.46 1.51 1.53
1.48 1.48 1.41 1.34 1.27 1.28 1.32 1.38 1.40 1.43 1.49 1.56 1.60 1.63 1.69 1.70 1.77 1.85 1.99 2.12 2.20 2.29 2.23 1.89 1.65 1.52 1.44 1.27 1.32 1.17 1.20 1.23 1.06 1.04 0.99 1.00 1.05 1.12 1.16 1.20 1.23 1.31 1.33
1.24 1.21 1.11 1.04 1.01 1.05 1.12 1.21 1.25 1.30 1.35 1.41 1.48 1.48 1.51 1.51 1.58 1.60 1.63 1.71 1.88 1.99 2.00 1.74 1.55 1.48 1.42 1.31 1.27 1.24 1.21 1.14 1.02 1.03 0.98 0.98 1.01 1.02 1.03 1.05 1.05 1.09 1.19
1.12 1.06 0.94 0.88 0.86 0.89 0.96 1.02 1.06 1.10 1.21 1.24 1.25 1.28 1.29 1.33 1.37 1.38 1.42 1.46 1.55 1.68 1.76 1.74 1.62 1.55 1.47 1.36 1.33 1.34 1.12 0.95 0.93 0.95 0.87 0.84 0.86 0.86 0.88 0.90 0.90 0.88 0.91
1.10 1.01 0.90 0.85 0.83 0.83 0.84 0.89 0.94 0.93 0.96 1.03 1.07 1.14 1.16 1.21 1.18 1.12 1.18 1.27 1.33 1.40 1.59 1.61 1.53 1.47 1.37 1.26 1.35 1.27 1.17 1.23 0.93 0.86 0.79 0.73 0.73 0.71 0.72 0.74 0.76 0.76 0.72
1.00 0.93 0.87 0.82 0.79 0.77 0.78 0.80 0.78 0.81 0.86 0.91 0.93 0.97 1.00 1.04 1.06 1.09 1.11 1.24 1.30 1.41 1.50 1.52 1.48 1.44 1.36 1.27 1.37 1.38 1.35 1.32 1.09 0.81 0.77 0.68 0.70 0.69 0.68 0.68 0.67 0.66 0.63
0.99 0.94 0.87 0.80 0.71 0.65 0.64 0.66 0.67 0.70 0.79 0.80 0.84 0.83 0.82 0.87 0.96 0.97 0.95 1.06 1.20 1.36 1.38 1.40 1.40 1.43 1.37 1.39 1.37 1.32 1.33 1.34 1.23 1.03 1.02 0.85 0.82 0.87 0.87 0.81 0.73 0.69 0.62
0.91 0.88 0.81 0.74 0.66 0.56 0.59 0.60 0.59 0.64 0.74 0.78 0.77 0.75 0.71 0.70 0.77 0.84 0.85 0.92 1.05 1.17 1.25 1.33 1.35 1.38 1.39 1.47 1.49 1.45 1.43 1.44 1.44 1.19 1.17 1.09 0.97 1.06 1.00 0.91 0.81 0.69 0.61
0.93 0.86 0.78 0.74 0.73 0.66 0.52 0.45 0.48 0.57 0.72 0.73 0.72 0.76 0.70 0.65 0.74 0.78 0.81 0.80 0.84 0.86 0.98 1.19 1.34 1.40 1.50 1.63 1.71 1.64 1.56 1.53 1.54 1.33 1.35 1.30 1.15 1.21 0.98 0.85 0.88 0.75 0.65
0.87 0.87 0.85 0.86 0.87 0.72 0.52 0.39 0.44 0.59 0.68 0.62 0.62 0.71 0.77 0.80 0.75 0.74 0.76 0.80 0.83 0.83 0.86 0.94 1.18 1.27 1.28 1.45 1.64 1.67 1.62 1.54 1.53 1.51 1.57 1.54 1.21 1.14 1.01 1.18 1.16 0.97 0.80
0.80 0.80 0.82 0.90 0.92 0.78 0.59 0.46 0.47 0.59 0.66 0.64 0.63 0.61 0.63 0.70 0.69 0.73 0.81 0.95 0.99 0.99 0.80 0.85 0.97 1.05 1.09 1.22 1.34 1.49 1.65 1.74 1.71 1.60 1.57 1.59 1.39 1.23 1.22 1.43 1.37 1.28 1.04
0.73 0.68 0.74 0.83 0.84 0.76 0.58 0.46 0.46 0.50 0.60 0.71 0.77 0.75 0.70 0.66 0.64 0.69 0.84 1.00 1.07 1.07 1.08 1.21 1.33 1.33 1.31 1.35 1.29 1.44 1.71 1.82 1.78 1.74 1.59 1.60 1.61 1.52 1.57 1.60 1.57 1.45 1.36